EST,Max TemperatureF,Mean TemperatureF,Min TemperatureF,Max Dew PointF,MeanDew PointF,Min DewpointF,Max Humidity, Mean Humidity, Min Humidity, Max Sea Level PressureIn, Mean Sea Level PressureIn, Min Sea Level PressureIn, Max VisibilityMiles, Mean VisibilityMiles, Min VisibilityMiles, Max Wind SpeedMPH, Mean Wind SpeedMPH, Max Gust SpeedMPH,PrecipitationIn, CloudCover, Events, WindDirDegrees
2011-11-1,53,40,26,35,30,26,92,68,44,30.42,30.38,30.35,10,10,10,9,3,13,0.00,1,,184
2011-11-2,57,41,25,36,30,25,100,70,40,30.44,30.34,30.22,10,9,0,14,3,17,0.00,0,Fog,182
2011-11-3,59,45,31,43,37,30,100,74,47,30.20,30.03,29.92,10,9,5,17,4,21,T,3,Rain,309
2011-11-4,41,34,26,37,28,23,92,76,59,30.37,30.13,29.98,10,10,9,16,6,25,T,6,,342
2011-11-5,45,33,21,27,23,19,88,64,39,30.53,30.48,30.38,10,10,10,7,1,9,0.00,0,,215
2011-11-6,58,39,19,30,19,11,92,54,15,30.52,30.43,30.34,10,9,1,16,4,20,0.00,1,,173
2011-11-7,63,43,22,44,32,19,88,62,35,30.34,30.26,30.18,10,10,10,9,3,13,0.00,1,,201
2011-11-8,63,50,37,44,40,36,100,68,36,30.30,30.26,30.23,10,10,7,7,1,12,0.00,4,,190
2011-11-9,68,52,36,49,40,36,100,71,42,30.24,30.16,29.99,10,5,0,16,6,21,0.00,0,Fog,177
2011-11-10,63,51,38,50,44,36,100,80,60,30.01,29.83,29.68,10,10,4,16,6,22,0.04,5,Rain,282
2011-11-11,42,38,33,37,32,21,96,77,57,29.84,29.61,29.54,10,8,0,24,9,32,0.07,7,Fog-Rain-Snow,308
2011-11-12,47,40,32,30,26,20,70,54,37,30.07,29.96,29.88,10,10,10,17,9,26,0.00,5,,220
2011-11-13,57,44,30,37,32,28,92,66,39,30.12,30.00,29.85,10,10,10,17,6,22,0.00,1,,184
2011-11-14,65,56,46,51,44,36,96,72,48,29.85,29.74,29.61,10,10,8,20,8,30,0.04,5,Rain,183
2011-11-15,59,47,34,52,43,33,93,74,54,29.99,29.77,29.60,10,10,10,21,7,30,0.01,3,,247
2011-11-16,55,43,30,47,41,28,96,84,71,29.98,29.85,29.75,10,9,2,13,4,16,0.07,4,Rain,193
2011-11-17,45,38,31,38,27,22,86,73,59,29.91,29.85,29.79,10,10,4,18,6,28,T,5,Snow,313
2011-11-18,40,35,30,25,20,15,78,59,40,30.32,30.18,29.92,10,9,2,18,8,25,T,5,Snow,270
2011-11-19,53,42,31,20,16,10,63,41,18,30.30,30.21,30.11,10,10,10,18,10,25,0.00,3,,178
2011-11-20,58,48,37,46,36,21,83,61,39,30.21,30.04,29.93,10,10,7,18,8,26,0.01,7,Rain,285
2011-11-21,37,28,19,30,19,14,84,62,40,30.44,30.37,30.22,10,10,10,13,4,18,0.00,2,,355
2011-11-22,36,26,15,25,18,13,92,68,44,30.50,30.38,30.21,10,9,2,6,1,8,0.01,2,Snow,33
2011-11-23,33,30,27,31,29,26,100,93,85,30.21,29.95,29.80,10,3,0,10,4,15,1.08,8,Fog-Snow,356
2011-11-24,33,29,24,31,27,23,92,85,78,30.18,30.14,30.06,10,7,0,10,2,14,0.00,8,Fog,237
2011-11-25,51,36,20,38,28,19,100,76,52,30.12,30.05,29.98,10,5,0,9,1,14,0.00,1,Fog,156
2011-11-26,49,40,30,37,33,28,100,81,61,30.25,30.18,30.08,10,8,0,8,1,12,0.00,1,Fog,137
2011-11-27,45,36,26,40,32,25,100,88,76,30.24,30.17,30.05,10,5,0,16,5,21,0.00,3,Fog,182
2011-11-28,58,49,39,52,46,39,100,84,67,30.16,30.09,30.01,10,10,6,15,4,22,0.04,7,Rain,210
2011-11-29,59,49,39,54,48,39,100,90,80,30.13,30.00,29.69,10,6,0,21,7,31,0.12,7,Fog-Rain,156
2011-11-30,59,46,32,55,39,27,93,75,57,29.92,29.63,29.48,10,10,5,23,10,32,0.22,7,Rain-Snow,202